datetime,pool elevation
1975-01-01,6859.7998
1975-01-02,6859.7998
1975-01-03,6859.7998
1975-01-04,6859.7998
1975-01-05,6859.8999
1975-01-06,6859.8999
1975-01-07,6859.8999
1975-01-08,6859.8999
1975-01-09,6859.8999
1975-01-10,6860.0
1975-01-11,6860.0
1975-01-12,6860.0
1975-01-13,6860.0
1975-01-14,6860.0
1975-01-15,6860.0
1975-01-16,6860.1001
1975-01-17,6860.1001
1975-01-18,6860.1001
1975-01-19,6860.1001
1975-01-20,6860.1001
1975-01-21,6860.2002
1975-01-22,6860.2002
1975-01-23,6860.2002
1975-01-24,6860.2002
1975-01-25,6860.2002
1975-01-26,6860.2002
1975-01-27,6860.2002
1975-01-28,6860.2998
1975-01-29,6860.2998
1975-01-30,6860.2998
1975-01-31,6860.2998
1975-02-01,6860.3999
1975-02-02,6860.3999
1975-02-03,6860.3999
1975-02-04,6860.3999
1975-02-05,6860.5
1975-02-06,6860.5
1975-02-07,6860.5
1975-02-08,6860.5
1975-02-09,6860.5
1975-02-10,6860.6001
1975-02-11,6860.6001
1975-02-12,6860.6001
1975-02-13,6860.6001
1975-02-14,6860.7002
1975-02-15,6860.7002
1975-02-16,6860.7998
1975-02-17,6860.7998
1975-02-18,6860.7998
1975-02-19,6860.7998
1975-02-20,6860.8999
1975-02-21,6860.8999
1975-02-22,6860.8999
1975-02-23,6860.8999
1975-02-24,6861.0
1975-02-25,6861.0
1975-02-26,6861.0
1975-02-27,6861.0
1975-02-28,6861.0
1975-03-01,6861.1001
1975-03-02,6861.1001
1975-03-03,6861.2002
1975-03-04,6861.2002
1975-03-05,6861.2998
1975-03-06,6861.3999
1975-03-07,6861.5
1975-03-08,6861.6001
1975-03-09,6861.7998
1975-03-10,6861.8999
1975-03-11,6862.0
1975-03-12,6862.1001
1975-03-13,6862.1001
1975-03-14,6862.2002
1975-03-15,6862.2998
1975-03-16,6862.3999
1975-03-17,6862.3999
1975-03-18,6862.5
1975-03-19,6862.6001
1975-03-20,6862.7002
1975-03-21,6862.8999
1975-03-22,6863.1001
1975-03-23,6863.2002
1975-03-24,6863.2998
1975-03-25,6863.3999
1975-03-26,6863.7998
1975-03-27,6864.1001
1975-03-28,6864.3999
1975-03-29,6864.6001
1975-03-30,6864.8999
1975-03-31,6865.2002
1975-04-01,6865.3999
1975-04-02,6865.5
1975-04-03,6865.6001
1975-04-04,6865.7002
1975-04-05,6866.1001
1975-04-06,6866.5
1975-04-07,6867.0
1975-04-08,6867.1001
1975-04-09,6867.2998
1975-04-10,6867.3999
1975-04-11,6867.7002
1975-04-12,6867.8999
1975-04-13,6868.1001
1975-04-14,6868.2002
1975-04-15,6868.2998
1975-04-16,6868.8999
1975-04-17,6869.7998
1975-04-18,6870.8999
1975-04-19,6871.7002
1975-04-20,6872.5
1975-04-21,6873.1001
1975-04-22,6873.2998
1975-04-23,6874.7998
1975-04-24,6875.7002
1975-04-25,6876.7998
1975-04-26,6878.1001
1975-04-27,6879.0
1975-04-28,6879.6001
1975-04-29,6880.1001
1975-04-30,6880.2998
1975-05-01,6879.7002
1975-05-02,6879.2998
1975-05-03,6879.2998
1975-05-04,6879.5
1975-05-05,6879.7002
1975-05-06,6879.3999
1975-05-07,6879.1001
1975-05-08,6879.0
1975-05-09,6879.2002
1975-05-10,6879.5
1975-05-11,6880.0
1975-05-12,6880.2998
1975-05-13,6880.2998
1975-05-14,6880.6001
1975-05-15,6881.2002
1975-05-16,6882.2002
1975-05-17,6882.2998
1975-05-18,6883.0
1975-05-19,6883.6001
1975-05-20,6884.0
1975-05-21,6884.5
1975-05-22,6884.7998
1975-05-23,6884.5
1975-05-24,6884.2002
1975-05-25,6884.6001
1975-05-26,6884.8999
1975-05-27,6885.1001
1975-05-28,6885.0
1975-05-29,6884.7002
1975-05-30,6884.6001
1975-05-31,6884.5
1975-06-01,6884.5
1975-06-02,6884.8999
1975-06-03,6886.2002
1975-06-04,6887.7998
1975-06-05,6889.2998
1975-06-06,6890.6001
1975-06-07,6891.7998
1975-06-08,6892.8999
1975-06-09,6893.8999
1975-06-10,6894.8999
1975-06-11,6895.6001
1975-06-12,6896.2002
1975-06-13,6896.2998
1975-06-14,6896.2998
1975-06-15,6896.2998
1975-06-16,6896.2998
1975-06-17,6896.2998
1975-06-18,6896.2998
1975-06-19,6896.2998
1975-06-20,6896.2002
1975-06-21,6896.1001
1975-06-22,6895.7998
1975-06-23,6895.7998
1975-06-24,6896.0
1975-06-25,6896.2002
1975-06-26,6896.2998
1975-06-27,6896.2998
1975-06-28,6896.2002
1975-06-29,6896.2002
1975-06-30,6896.2002
1975-07-01,6896.2002
1975-07-02,6896.2998
1975-07-03,6896.2998
1975-07-04,6896.3999
1975-07-05,6896.5
1975-07-06,6896.6001
1975-07-07,6896.6001
1975-07-08,6896.6001
1975-07-09,6896.6001
1975-07-10,6896.6001
1975-07-11,6896.6001
1975-07-12,6896.7002
1975-07-13,6896.7002
1975-07-14,6896.6001
1975-07-15,6896.5
1975-07-16,6896.3999
1975-07-17,6896.2998
1975-07-18,6896.2998
1975-07-19,6896.2002
1975-07-20,6896.1001
1975-07-21,6896.2002
1975-07-22,6896.2002
1975-07-23,6896.2002
1975-07-24,6896.1001
1975-07-25,6896.1001
1975-07-26,6896.2002
1975-07-27,6896.2002
1975-07-28,6896.2002
1975-07-29,6896.2002
1975-07-30,6896.2002
1975-07-31,6896.2002
1975-08-01,6896.2002
1975-08-02,6896.1001
1975-08-03,6896.1001
1975-08-04,6896.1001
1975-08-05,6896.1001
1975-08-06,6896.0
1975-08-07,6895.7998
1975-08-08,6895.3999
1975-08-09,6895.1001
1975-08-10,6894.7002
1975-08-11,6894.5
1975-08-12,6894.2998
1975-08-13,6894.2002
1975-08-14,6894.2002
1975-08-15,6894.2002
1975-08-16,6894.2002
1975-08-17,6894.2002
1975-08-18,6894.1001
1975-08-19,6893.8999
1975-08-20,6893.8999
1975-08-21,6893.8999
1975-08-22,6893.8999
1975-08-23,6893.8999
1975-08-24,6894.0
1975-08-25,6893.8999
1975-08-26,6893.6001
1975-08-27,6893.3999
1975-08-28,6893.1001
1975-08-29,6892.8999
1975-08-30,6892.6001
1975-08-31,6892.2998
1975-09-01,6892.0
1975-09-02,6891.7002
1975-09-03,6891.3999
1975-09-04,6891.2002
1975-09-05,6891.2002
1975-09-06,6891.2002
1975-09-07,6891.2002
1975-09-08,6891.2002
1975-09-09,6891.2002
1975-09-10,6891.1001
1975-09-11,6891.1001
1975-09-12,6891.1001
1975-09-13,6891.1001
1975-09-14,6891.6001
1975-09-15,6891.7998
1975-09-16,6891.7998
1975-09-17,6891.8999
1975-09-18,6891.8999
1975-09-19,6891.8999
1975-09-20,6891.8999
1975-09-21,6891.8999
1975-09-22,6891.8999
1975-09-23,6891.8999
1975-09-24,6892.0
1975-09-25,6891.8999
1975-09-26,6891.8999
1975-09-27,6891.8999
1975-09-28,6891.8999
1975-09-29,6891.8999
1975-09-30,6891.7998
1975-10-01,6891.7998
1975-10-02,6891.7998
1975-10-03,6891.6001
1975-10-04,6891.5
1975-10-05,6891.3999
1975-10-06,6891.1001
1975-10-07,6891.0
1975-10-08,6890.8999
1975-10-09,6890.7002
1975-10-10,6890.6001
1975-10-11,6890.3999
1975-10-12,6890.2998
1975-10-13,6890.1001
1975-10-14,6890.0
1975-10-15,6889.7998
1975-10-16,6889.7002
1975-10-17,6889.6001
1975-10-18,6889.3999
1975-10-19,6889.2998
1975-10-20,6889.2002
1975-10-21,6889.1001
1975-10-22,6889.0
1975-10-23,6889.0
1975-10-24,6889.0
1975-10-25,6889.0
1975-10-26,6889.0
1975-10-27,6889.0
1975-10-28,6888.8999
1975-10-29,6888.8999
1975-10-30,6889.0
1975-10-31,6889.0
1975-11-01,6889.0
1975-11-02,6889.0
1975-11-03,6888.7998
1975-11-04,6888.6001
1975-11-05,6888.3999
1975-11-06,6888.2998
1975-11-07,6888.2998
1975-11-08,6888.2998
1975-11-09,6888.2998
1975-11-10,6888.2998
1975-11-11,6888.2998
1975-11-12,6888.2998
1975-11-13,6888.1001
1975-11-14,6887.8999
1975-11-15,6887.6001
1975-11-16,6887.3999
1975-11-17,6887.1001
1975-11-18,6886.8999
1975-11-19,6886.7002
1975-11-20,6886.3999
1975-11-21,6886.1001
1975-11-22,6885.7002
1975-11-23,6885.3999
1975-11-24,6885.1001
1975-11-25,6884.6001
1975-11-26,6884.0
1975-11-27,6883.5
1975-11-28,6882.7998
1975-11-29,6882.1001
1975-11-30,6881.2998
1975-12-01,6880.6001
1975-12-02,6879.7998
1975-12-03,6879.1001
1975-12-04,6878.2998
1975-12-05,6878.0
1975-12-06,6878.1001
1975-12-07,6878.1001
1975-12-08,6878.2002
1975-12-09,6878.2002
1975-12-10,6878.2002
1975-12-11,6878.2998
1975-12-12,6878.2998
1975-12-13,6878.3999
1975-12-14,6878.3999
1975-12-15,6878.5
1975-12-16,6878.5
1975-12-17,6878.5
1975-12-18,6878.5
1975-12-19,6878.6001
1975-12-20,6878.6001
1975-12-21,6878.6001
1975-12-22,6878.7002
1975-12-23,6878.7002
1975-12-24,6878.6001
1975-12-25,6878.7002
1975-12-26,6878.5
1975-12-27,6878.5
1975-12-28,6878.3999
1975-12-29,6878.3999
1975-12-30,6878.2998
1975-12-31,6878.2002
1976-01-01,6878.2002
1976-01-02,6878.1001
1976-01-03,6878.1001
1976-01-04,6878.0
1976-01-05,6878.0
1976-01-06,6877.8999
1976-01-07,6877.5
1976-01-08,6876.6001
1976-01-09,6876.2002
1976-01-10,6876.2002
1976-01-11,6876.2002
1976-01-12,6876.2998
1976-01-13,6876.2998
1976-01-14,6876.2998
1976-01-15,6876.3999
1976-01-16,6876.3999
1976-01-17,6876.3999
1976-01-18,6876.3999
1976-01-19,6876.5
1976-01-20,6876.5
1976-01-21,6876.6001
1976-01-22,6876.6001
1976-01-23,6876.6001
1976-01-24,6876.6001
1976-01-25,6876.7002
1976-01-26,6876.7002
1976-01-27,6876.7002
1976-01-28,6876.7998
1976-01-29,6876.7998
1976-01-30,6876.7998
1976-01-31,6876.8999
1976-02-01,6876.8999
1976-02-02,6876.8999
1976-02-03,6876.8999
1976-02-04,6877.0
1976-02-05,6877.0
1976-02-06,6877.1001
1976-02-07,6877.1001
1976-02-08,6877.1001
1976-02-09,6877.2002
1976-02-10,6877.2998
1976-02-11,6877.2998
1976-02-12,6877.3999
1976-02-13,6877.5
1976-02-14,6877.6001
1976-02-15,6877.6001
1976-02-16,6877.7002
1976-02-17,6877.7002
1976-02-18,6877.7998
1976-02-19,6877.7998
1976-02-20,6877.8999
1976-02-21,6877.8999
1976-02-22,6877.8999
1976-02-23,6878.0
1976-02-24,6878.0
1976-02-25,6878.1001
1976-02-26,6878.1001
1976-02-27,6878.2002
1976-02-28,6878.2002
1976-02-29,6878.2998
1976-03-01,6878.3999
1976-03-02,6878.3999
1976-03-03,6878.5
1976-03-04,6878.6001
1976-03-05,6878.6001
1976-03-06,6878.7002
1976-03-07,6878.7998
1976-03-08,6878.7998
1976-03-09,6878.7998
1976-03-10,6878.7002
1976-03-11,6878.6001
1976-03-12,6878.5
1976-03-13,6878.3999
1976-03-14,6878.2998
1976-03-15,6878.2002
1976-03-16,6878.2998
1976-03-17,6878.3999
1976-03-18,6878.5
1976-03-19,6878.6001
1976-03-20,6878.6001
1976-03-21,6878.7002
1976-03-22,6878.7998
1976-03-23,6878.8999
1976-03-24,6879.1001
1976-03-25,6879.2002
1976-03-26,6879.3999
1976-03-27,6879.6001
1976-03-28,6879.7998
1976-03-29,6879.8999
1976-03-30,6879.8999
1976-03-31,6880.0
1976-04-01,6880.1001
1976-04-02,6880.2002
1976-04-03,6880.3999
1976-04-04,6880.7002
1976-04-05,6881.0
1976-04-06,6881.2002
1976-04-07,6881.5
1976-04-08,6881.7998
1976-04-09,6882.2002
1976-04-10,6882.7002
1976-04-11,6883.5
1976-04-12,6884.7998
1976-04-13,6886.2002
1976-04-14,6886.7998
1976-04-15,6887.2998
1976-04-16,6887.6001
1976-04-17,6887.8999
1976-04-18,6888.2002
1976-04-19,6888.5
1976-04-20,6888.7002
1976-04-21,6889.0
1976-04-22,6889.1001
1976-04-23,6889.1001
1976-04-24,6889.1001
1976-04-25,6889.2998
1976-04-26,6889.3999
1976-04-27,6889.3999
1976-04-28,6889.6001
1976-04-29,6889.8999
1976-04-30,6889.7002
1976-05-01,6889.2998
1976-05-02,6889.1001
1976-05-03,6889.2002
1976-05-04,6889.2998
1976-05-05,6889.2998
1976-05-06,6889.3999
1976-05-07,6889.2998
1976-05-08,6889.1001
1976-05-09,6888.7002
1976-05-10,6888.7002
1976-05-11,6889.0
1976-05-12,6889.3999
1976-05-13,6889.5
1976-05-14,6889.6001
1976-05-15,6889.7002
1976-05-16,6889.8999
1976-05-17,6890.0
1976-05-18,6890.0
1976-05-19,6890.3999
1976-05-20,6891.1001
1976-05-21,6891.7998
1976-05-22,6892.6001
1976-05-23,6893.2002
1976-05-24,6893.7998
1976-05-25,6894.2998
1976-05-26,6894.7998
1976-05-27,6895.2998
1976-05-28,6895.7002
1976-05-29,6896.1001
1976-05-30,6896.3999
1976-05-31,6896.7998
1976-06-01,6899.0
1976-06-02,6897.2998
1976-06-03,6897.6001
1976-06-04,6897.7998
1976-06-05,6898.0
1976-06-06,6897.2998
1976-06-07,6898.5
1976-06-08,6898.7998
1976-06-09,6899.0
1976-06-10,6899.2002
1976-06-11,6899.2998
1976-06-12,6899.5
1976-06-13,6899.5
1976-06-14,6899.6001
1976-06-15,6899.7002
1976-06-16,6899.7002
1976-06-17,6899.7998
1976-06-18,6899.7998
1976-06-19,6899.7998
1976-06-20,6899.7998
1976-06-21,6899.7998
1976-06-22,6899.7998
1976-06-23,6899.7998
1976-06-24,6899.6001
1976-06-25,6899.3999
1976-06-26,6899.2002
1976-06-27,6899.0
1976-06-28,6898.7998
1976-06-29,6898.6001
1976-06-30,6898.3999
1976-07-01,6898.2002
1976-07-02,6898.0
1976-07-03,6897.6001
1976-07-04,6897.2998
1976-07-05,6897.0
1976-07-06,6896.7002
1976-07-07,6896.3999
1976-07-08,6896.1001
1976-07-09,6895.7002
1976-07-10,6895.2002
1976-07-11,6894.7998
1976-07-12,6894.3999
1976-07-13,6894.0
1976-07-14,6893.7002
1976-07-15,6893.2002
1976-07-16,6892.7998
1976-07-17,6892.3999
1976-07-18,6892.0
1976-07-19,6891.6001
1976-07-20,6891.2002
1976-07-21,6890.7998
1976-07-22,6890.2998
1976-07-23,6889.8999
1976-07-24,6889.5
1976-07-25,6889.1001
1976-07-26,6888.7002
1976-07-27,6888.3999
1976-07-28,6888.2002
1976-07-29,6887.7998
1976-07-30,6887.6001
1976-07-31,6887.3999
1976-08-01,6887.3999
1976-08-02,6887.3999
1976-08-03,6887.5
1976-08-04,6887.3999
1976-08-05,6887.3999
1976-08-06,6887.3999
1976-08-07,6887.3999
1976-08-08,6887.2998
1976-08-09,6887.1001
1976-08-10,6886.7002
1976-08-11,6886.2998
1976-08-12,6886.1001
1976-08-13,6885.3999
1976-08-14,6884.5
1976-08-15,6883.6001
1976-08-16,6882.8999
1976-08-17,6882.2998
1976-08-18,6881.7002
1976-08-19,6881.1001
1976-08-20,6880.8999
1976-08-21,6880.0
1976-08-22,6879.5
1976-08-23,6879.0
1976-08-24,6878.5
1976-08-25,6877.8999
1976-08-26,6877.3999
1976-08-27,6876.8999
1976-08-28,6876.2998
1976-08-29,6875.7002
1976-08-30,6875.2002
1976-08-31,6874.6001
1976-09-01,6874.1001
1976-09-02,6873.5
1976-09-03,6872.6001
1976-09-04,6871.8999
1976-09-05,6871.0
1976-09-06,6870.2002
1976-09-07,6869.5
1976-09-08,6868.7002
1976-09-09,6868.0
1976-09-10,6867.1001
1976-09-11,6866.2998
1976-09-12,6865.2998
1976-09-13,6864.6001
1976-09-14,6863.7998
1976-09-15,6862.8999
1976-09-16,6862.1001
1976-09-17,6861.3999
1976-09-18,6860.7002
1976-09-19,6860.0
1976-09-20,6859.2998
1976-09-21,6858.6001
1976-09-22,6858.1001
1976-09-23,6857.7002
1976-09-24,6857.2002
1976-09-25,6856.7998
1976-09-26,6856.3999
1976-09-27,6856.2998
1976-09-28,6856.2002
1976-09-29,6856.2002
1976-09-30,6856.2002
1976-10-01,6856.2002
1976-10-02,6856.2002
1976-10-03,6856.2002
1976-10-04,6856.2002
1976-10-05,6856.2002
1976-10-06,6856.2002
1976-10-07,6856.2002
1976-10-08,6856.1001
1976-10-09,6856.1001
1976-10-10,6856.1001
1976-10-11,6856.1001
1976-10-12,6856.1001
1976-10-13,6856.2002
1976-10-14,6856.1001
1976-10-15,6855.6001
1976-10-16,6855.2998
1976-10-17,6855.0
1976-10-18,6854.7002
1976-10-19,6854.5
1976-10-20,6854.2998
1976-10-21,6853.8999
1976-10-22,6853.7002
1976-10-23,6853.3999
1976-10-24,6853.2002
1976-10-25,6853.0
1976-10-26,6852.7002
1976-10-27,6852.3999
1976-10-28,6852.2998
1976-10-29,6852.3999
1976-10-30,6852.3999
1976-10-31,6852.3999
1976-11-01,6852.3999
1976-11-02,6852.2998
1976-11-03,6852.2998
1976-11-04,6852.2998
1976-11-05,6852.2998
1976-11-06,6852.2998
1976-11-07,6852.2998
1976-11-08,6852.2998
1976-11-09,6852.2998
1976-11-10,6852.2998
1976-11-11,6852.2998
1976-11-12,6852.2998
1976-11-13,6852.2998
1976-11-14,6852.2998
1976-11-15,6852.2002
1976-11-16,6852.2002
1976-11-17,6852.2002
1976-11-18,6852.2002
1976-11-19,6852.2002
1976-11-20,6852.2002
1976-11-21,6852.2002
1976-11-22,6852.2998
1976-11-23,6852.2002
1976-11-24,6852.2998
1976-11-25,6852.2002
1976-11-26,6852.2002
1976-11-27,6852.2002
1976-11-28,6852.2002
1976-11-29,6852.2002
1976-11-30,6852.2002
1976-12-01,6852.2002
1976-12-02,6852.2002
1976-12-03,6852.2002
1976-12-04,6852.2998
1976-12-05,6852.2998
1976-12-06,6852.2998
1976-12-07,6852.2002
1976-12-08,6852.2002
1976-12-09,6852.2002
1976-12-10,6852.2002
1976-12-11,6852.2002
1976-12-12,6852.2002
1976-12-13,6853.5
1976-12-14,6855.7998
1976-12-15,6857.8999
1976-12-16,6859.7002
1976-12-17,6861.3999
1976-12-18,6861.5
1976-12-19,6864.6001
1976-12-20,6866.6001
1976-12-21,6868.5
1976-12-22,6870.3999
1976-12-23,6871.2002
1976-12-24,6871.2002
1976-12-25,6871.2002
1976-12-26,6871.2002
1976-12-27,6871.2002
1976-12-28,6871.2002
1976-12-29,6871.2002
1976-12-30,6871.2002
1976-12-31,6871.2002
1977-01-01,6871.2002
1977-01-02,6871.2002
1977-01-03,6871.2002
1977-01-04,6871.2002
1977-01-05,6871.2002
1977-01-06,6871.2002
1977-01-07,6871.2002
1977-01-08,6871.2998
1977-01-09,6871.2002
1977-01-10,6871.2002
1977-01-11,6871.2002
1977-01-12,6871.2002
1977-01-13,6871.2002
1977-01-14,6871.2002
1977-01-15,6871.2002
1977-01-16,6871.2002
1977-01-17,6871.2002
1977-01-18,6871.2002
1977-01-19,6871.2002
1977-01-20,6871.2002
1977-01-21,6871.2002
1977-01-22,6871.2002
1977-01-23,6871.2002
1977-01-24,6871.2002
1977-01-25,6871.2002
1977-01-26,6871.2002
1977-01-27,6871.2002
1977-01-28,6871.2002
1977-01-29,6871.2002
1977-01-30,6871.2002
1977-01-31,6871.2002
1977-02-01,6871.2002
1977-02-02,6871.2002
1977-02-03,6871.2002
1977-02-04,6871.2002
1977-02-05,6871.2002
1977-02-06,6871.2002
1977-02-07,6871.2002
1977-02-08,6871.2002
1977-02-09,6871.2002
1977-02-10,6871.2002
1977-02-11,6871.2002
1977-02-12,6871.2002
1977-02-13,6871.2002
1977-02-14,6871.2002
1977-02-15,6871.2002
1977-02-16,6871.2002
1977-02-17,6871.2002
1977-02-18,6871.2002
1977-02-19,6871.2002
1977-02-20,6871.2002
1977-02-21,6871.2002
1977-02-22,6871.2002
1977-02-23,6871.2002
1977-02-24,6871.2002
1977-02-25,6871.2002
1977-02-26,6871.2002
1977-02-27,6871.2002
1977-02-28,6871.2002
1977-03-01,6871.2002
1977-03-02,6871.2002
1977-03-03,6871.2002
1977-03-04,6871.2002
1977-03-05,6871.2998
1977-03-06,6871.2998
1977-03-07,6871.2998
1977-03-08,6871.2998
1977-03-09,6871.2998
1977-03-10,6871.3999
1977-03-11,6871.3999
1977-03-12,6871.3999
1977-03-13,6871.3999
1977-03-14,6871.3999
1977-03-15,6871.5
1977-03-16,6871.3999
1977-03-17,6871.3999
1977-03-18,6871.3999
1977-03-19,6871.5
1977-03-20,6871.5
1977-03-21,6871.5
1977-03-22,6871.5
1977-03-23,6871.6001
1977-03-24,6871.6001
1977-03-25,6871.6001
1977-03-26,6871.7002
1977-03-27,6871.7002
1977-03-28,6871.7998
1977-03-29,6871.8999
1977-03-30,6871.8999
1977-03-31,6871.8999
1977-04-01,6872.0
1977-04-02,6872.0
1977-04-03,6872.1001
1977-04-04,6872.1001
1977-04-05,6872.1001
1977-04-06,6872.2002
1977-04-07,6872.2002
1977-04-08,6872.2998
1977-04-09,6872.5
1977-04-10,6873.0
1977-04-11,6873.6001
1977-04-12,6874.0
1977-04-13,6874.5
1977-04-14,6875.0
1977-04-15,6875.2998
1977-04-16,6875.7998
1977-04-17,6876.1001
1977-04-18,6876.5
1977-04-19,6877.1001
1977-04-20,6877.3999
1977-04-21,6877.5
1977-04-22,6877.6001
1977-04-23,6877.7998
1977-04-24,6878.0
1977-04-25,6878.2002
1977-04-26,6878.2998
1977-04-27,6878.3999
1977-04-28,6878.2998
1977-04-29,6877.7002
1977-04-30,6877.2002
1977-05-01,6876.6001
1977-05-02,6876.0
1977-05-03,6875.5
1977-05-04,6875.1001
1977-05-05,6874.5
1977-05-06,6873.8999
1977-05-07,6873.3999
1977-05-08,6872.7998
1977-05-09,6872.2998
1977-05-10,6871.7002
1977-05-11,6871.2002
1977-05-12,6870.8999
1977-05-13,6870.8999
1977-05-14,6870.8999
1977-05-15,6871.0
1977-05-16,6871.0
1977-05-17,6871.0
1977-05-18,6871.0
1977-05-19,6871.0
1977-05-20,6871.0
1977-05-21,6870.8999
1977-05-22,6870.8999
1977-05-23,6870.7998
1977-05-24,6870.7998
1977-05-25,6870.7002
1977-05-26,6870.6001
1977-05-27,6870.6001
1977-05-28,6870.5
1977-05-29,6870.3999
1977-05-30,6870.2998
1977-05-31,6870.2002
1977-06-01,6868.7998
1977-06-02,6867.7998
1977-06-03,6867.0
1977-06-04,6866.2002
1977-06-05,6865.2998
1977-06-06,6864.5
1977-06-07,6863.7002
1977-06-08,6863.0
1977-06-09,6862.0
1977-06-10,6860.6001
1977-06-11,6859.1001
1977-06-12,6857.6001
1977-06-13,6856.1001
1977-06-14,6854.6001
1977-06-15,6853.0
1977-06-16,6851.3999
1977-06-17,6849.7998
1977-06-18,6848.1001
1977-06-19,6846.5
1977-06-20,6844.7002
1977-06-21,6843.2998
1977-06-22,6843.0
1977-06-23,6840.7998
1977-06-24,6840.2002
1977-06-25,6840.2998
1977-06-26,6840.3999
1977-06-27,6840.5
1977-06-28,6840.5
1977-06-29,6840.6001
1977-06-30,6840.3999
1977-07-01,6840.2002
1977-07-02,6840.1001
1977-07-03,6840.1001
1977-07-04,6840.1001
1977-07-05,6840.1001
1977-07-06,6840.1001
1977-07-07,6840.1001
1977-07-08,6840.1001
1977-07-09,6840.1001
1977-07-10,6840.0
1977-07-11,6840.0
1977-07-12,6840.0
1977-07-13,6839.5
1977-07-14,6838.2998
1977-07-15,6838.2998
1977-07-16,6835.3999
1977-07-17,6833.8999
1977-07-18,6832.6001
1977-07-19,6831.5
1977-07-20,6830.6001
1977-07-21,6829.8999
1977-07-22,6829.1001
1977-07-23,6828.2998
1977-07-24,6827.6001
1977-07-25,6826.8999
1977-07-26,6826.6001
1977-07-27,6826.6001
1977-07-28,6826.6001
1977-07-29,6826.6001
1977-07-30,6826.6001
1977-07-31,6826.6001
1977-08-01,6826.5
1977-08-02,6826.5
1977-08-03,6826.0
1977-08-04,6825.1001
1977-08-05,6824.1001
1977-08-06,6823.2002
1977-08-07,6822.2998
1977-08-08,6820.7998
1977-08-09,6819.0
1977-08-10,6817.5
1977-08-11,6817.0
1977-08-12,6817.0
1977-08-13,6817.0
1977-08-14,6816.8999
1977-08-15,6817.0
1977-08-16,6817.0
1977-08-17,6817.1001
1977-08-18,6818.0
1977-08-19,6818.2002
1977-08-20,6818.3999
1977-08-21,6818.5
1977-08-22,6818.5
1977-08-23,6818.5
1977-08-24,6818.6001
1977-08-25,6818.5
1977-08-26,6818.5
1977-08-27,6818.5
1977-08-28,6818.5
1977-08-29,6817.8999
1977-08-30,6817.2002
1977-08-31,6817.0
1977-09-01,6817.1001
1977-09-02,6817.2002
1977-09-03,6817.2002
1977-09-04,6817.1001
1977-09-05,6817.1001
1977-09-06,6817.0
1977-09-07,6817.0
1977-09-08,6817.0
1977-09-09,6817.0
1977-09-10,6817.0
1977-09-11,6817.0
1977-09-12,6817.0
1977-09-13,6817.0
1977-09-14,6817.0
1977-09-15,6817.0
1977-09-16,6817.0
1977-09-17,6817.0
1977-09-18,6816.8999
1977-09-19,6816.8999
1977-09-20,6816.8999
1977-09-21,6816.8999
1977-09-22,6816.8999
1977-09-23,6817.0
1977-09-24,6817.0
1977-09-25,6817.0
1977-09-26,6817.0
1977-09-27,6816.8999
1977-09-28,6816.3999
1977-09-29,6815.3999
1977-09-30,6814.2998
1977-10-01,6813.2998
1977-10-02,6812.2002
1977-10-03,6811.1001
1977-10-04,6810.7002
1977-10-05,6810.6001
1977-10-06,6810.6001
1977-10-07,6810.6001
1977-10-08,6810.6001
1977-10-09,6810.7002
1977-10-10,6810.7998
1977-10-11,6810.7998
1977-10-12,6810.7002
1977-10-13,6810.6001
1977-10-14,6810.6001
1977-10-15,6810.6001
1977-10-16,6810.6001
1977-10-17,6810.5
1977-10-18,6810.5
1977-10-19,6810.5
1977-10-20,6810.3999
1977-10-21,6810.2002
1977-10-22,6810.1001
1977-10-23,6810.0
1977-10-24,6810.0
1977-10-25,6810.0
1977-10-26,6810.0
1977-10-27,6810.0
1977-10-28,6810.0
1977-10-29,6810.0
1977-10-30,6810.0
1977-10-31,6810.0
1977-11-01,6810.0
1977-11-02,6810.0
1977-11-03,6810.0
1977-11-04,6810.0
1977-11-05,6810.0
1977-11-06,6810.0
1977-11-07,6810.2002
1977-11-08,6810.1001
1977-11-09,6810.0
1977-11-10,6810.0
1977-11-11,6810.0
1977-11-12,6810.0
1977-11-13,6810.0
1977-11-14,6810.0
1977-11-15,6809.8999
1977-11-16,6810.0
1977-11-17,6810.0
1977-11-18,6810.0
1977-11-19,6810.0
1977-11-20,6810.0
1977-11-21,6809.8999
1977-11-22,6809.8999
1977-11-23,6810.0
1977-11-24,6809.8999
1977-11-25,6810.0
1977-11-26,6810.0
1977-11-27,6810.0
1977-11-28,6810.0
1977-11-29,6810.0
1977-11-30,6810.0
1977-12-01,6810.0
1977-12-02,6810.0
1977-12-03,6810.0
1977-12-04,6810.1001
1977-12-05,6810.1001
1977-12-06,6810.1001
1977-12-07,6810.2002
1977-12-08,6810.2002
1977-12-09,6810.2002
1977-12-10,6810.1001
1977-12-11,6810.1001
1977-12-12,6810.0
1977-12-13,6810.0
1977-12-14,6810.8999
1977-12-15,6812.3999
1977-12-16,6813.8999
1977-12-17,6815.2002
1977-12-18,6816.7002
1977-12-19,6817.1001
1977-12-20,6817.0
1977-12-21,6817.0
1977-12-22,6817.1001
1977-12-23,6817.1001
1977-12-24,6817.1001
1977-12-25,6817.1001
1977-12-26,6817.2002
1977-12-27,6817.2002
1977-12-28,6817.2002
1977-12-29,6817.2998
1977-12-30,6817.2998
1977-12-31,6817.2998
1978-01-01,6817.3999
1978-01-02,6817.2998
1978-01-03,6817.3999
1978-01-04,6817.3999
1978-01-05,6817.3999
1978-01-06,6817.5
1978-01-07,6817.5
1978-01-08,6817.5
1978-01-09,6817.5
1978-01-10,6817.6001
1978-01-11,6817.6001
1978-01-12,6817.6001
1978-01-13,6817.7002
1978-01-14,6817.7002
1978-01-15,6817.7998
1978-01-16,6817.8999
1978-01-17,6817.8999
1978-01-18,6818.0
1978-01-19,6818.0
1978-01-20,6818.0
1978-01-21,6818.1001
1978-01-22,6818.1001
1978-01-23,6818.1001
1978-01-24,6818.1001
1978-01-25,6818.2002
1978-01-26,6818.2002
1978-01-27,6818.2002
1978-01-28,6818.2998
1978-01-29,6818.2998
1978-01-30,6818.2998
1978-01-31,6818.3999
1978-02-01,6818.5
1978-02-02,6818.5
1978-02-03,6818.5
1978-02-04,6818.5
1978-02-05,6818.6001
1978-02-06,6818.6001
1978-02-07,6818.7002
1978-02-08,6818.7002
1978-02-09,6818.7998
1978-02-10,6818.7998
1978-02-11,6818.8999
1978-02-12,6818.8999
1978-02-13,6819.0
1978-02-14,6819.0
1978-02-15,6819.0
1978-02-16,6819.1001
1978-02-17,6819.1001
1978-02-18,6819.1001
1978-02-19,6819.2002
1978-02-20,6819.2002
1978-02-21,6819.2002
1978-02-22,6819.2002
1978-02-23,6819.2998
1978-02-24,6819.2998
1978-02-25,6819.3999
1978-02-26,6819.3999
1978-02-27,6819.5
1978-02-28,6819.5
1978-03-01,6819.7002
1978-03-02,6819.8999
1978-03-03,6820.2002
1978-03-04,6820.3999
1978-03-05,6820.6001
1978-03-06,6820.7002
1978-03-07,6820.8999
1978-03-08,6821.0
1978-03-09,6821.2002
1978-03-10,6821.3999
1978-03-11,6821.6001
1978-03-12,6821.8999
1978-03-13,6822.1001
1978-03-14,6822.5
1978-03-15,6822.7002
1978-03-16,6823.0
1978-03-17,6823.1001
1978-03-18,6823.2998
1978-03-19,6823.3999
1978-03-20,6823.7002
1978-03-21,6824.1001
1978-03-22,6825.0
1978-03-23,6826.1001